Showing default

AFR-1, 56964

Orbit data source: Space-Track

AFR-1, 56964 is a payload satellite owned by Azista BST (IN) in SSO that was launched on Mon, 12 Jun 2023 UTC via an FALCON 9 launch vehicle from the Air Force Western Test Range (AFWTR). Payload-class satellites include a variety of spacecraft equipped with specific instruments for various scientific and technological missions. These include communications satellites like Starlink; space stations such as the ISS; scientific satellites like the Hubble; Earth observation satellites from companies like Planet Labs, Umbra, and HawkEye 360; GPS; miniature CubeSats for education and research; and military/defense satellites.

Loading next visibility...
Identifier
56964, 2023-084AJ
Orbit
SSO
Country
Flag of ININ / IND
Related business
Manufacturer
Azista BST
Mission
Operational Commercial Imaging
Bus & Motor
AFR, Unknown motor
Mass
80 kg wet, 80 kg dry
Launch date (UTC)
2023-06-12 (2 years ago)
Launch vehicle
FALCON 9
Launch site
Air Force Western Test Range (AFWTR)
Object type
Payload
Rocket body
Debris
Shape & HBR
Box + 1 Pan, 0.5 m
Radar Cross Section
1.100 m², Medium (>0.1 m² and < 1m²)

Expand to show TLE details & history
Last TLE update: 6 hours ago

TLE from 6 hours ago
0 AFR-1
1 56964U 23084AJ  25261.34016904  .00004947  00000-0  20157-3 0  9992
2 56964  97.5923  27.8221 0010717 209.3540 150.7097 15.24905342125741
Epoch: 2025-09-18T08:09Z
TLE epoch observation values (Epoch: 2025-09-18T08:09:50.605Z)
Latitude
0.00006°
Longitude
-92.14193°
Altitude
500.585 km
Speed
7.611 km/s
True Right ascension
01h 51m 17s
True Declination
0° 00' 00"
Sunlit
Object was in full shadow at epoch
Visualization orbit readout
Latitude
Unknown
Longitude
Unknown
Altitude
Unknown
Speed
Unknown
Apparent Right ascension
Unknown
Apparent Declination
Unknown
Sunlit
N/A
Visualization observer readout
Local Sidereal Time
07:21:36
Azimuth
Unknown
Elevation
Unknown
Doppler factor
Unknown
Orbital elements
Apogee altitude
495.396 km
Perigee altitude
480.679 km
Semi-major axis
6,866.174 km
Eccentricity
0.00107
Inclination
97.5923°
RAAN
27.8221°
Arg. of periapsis
209.354°
True anomaly
150.76971°
Mean anomaly
150.7097°
Eccentric anomaly
150.73971°
Mean motion
3.81479 °/min
Orbital period
94.37 mins
BSTAR
0.00020157
Loading maneuver chart data...
Computing Atmospheric mass density...
Loading historical data...
Loading historical data...
Loading historical data...
Loading historical data...
Loading historical data...
Loading historical data...
Loading historical data...

Documentation

Showing up to 5 results
|